Weather History for Monroe, LA

Change the Weather History Date:

Thursday, June 7, 2012

  Actual Average Record
Temperature  
Mean Temperature 78 °F 79 °F  
Max Temperature 88 °F 90 °F 100 °F (1963)
Min Temperature 68 °F 68 °F 55 °F (2000)
Degree Days  
Heating Degree Days 0 0  
Month to date heating degree days 0 0  
Since 1 June heating degree days 0 0  
Since 1 July heating degree days 1563 2230  
Cooling Degree Days 13 14  
Month to date cooling degree days 107 95  
Year to date cooling degree days 784 530  
Since 1 June cooling degree days 107 95  
Growing Degree Days 28 (Base 50)    
Moisture  
Dew Point 58 °F    
Average Humidity 52    
Maximum Humidity 70    
Minimum Humidity 34    
Precipitation  
Precipitation 0.00 in 0.15 in 1.95 in (1974)
Month to date precipitation T 1.04  
Year to date precipitation 24.37 25.09  
Snow  
Snow 0.00 in - - ()
Month to date snowfall 0.0  
Since 1 June snowfall 0.0  
Since 1 July snowfall T  
Snow Depth 0.00 in    
Sea Level Pressure  
Sea Level Pressure 29.94 in    
Wind  
Wind Speed 8 mph (NE)    
Max Wind Speed 15 mph    
Max Gust Speed 20 mph    
Visibility 10 miles    
Events      
T = Trace of Precipitation, MM = Missing Value Source: NWS Daily Summary

Daily Weather History Graph

Daily Weather History Graph

Search for Another Location

Airport:

Trip Planner

Search our weather history database for the weather conditions in past years. The results will help you decide how hot, cold, wet, or windy it might be!

Date:

Astronomy

Jun. 07, 2012 Rise Set
Actual Time 6:00 AM CDT 8:14 PM CDT
Civil Twilight 5:32 AM CDT 8:42 PM CDT
Nautical Twilight 4:57 AM CDT 9:16 PM CDT
Astronomical Twilight 4:20 AM CDT 9:54 PM CDT
Moon 11:14 PM CDT (6/7) 9:25 AM CDT (6/7)
Length of Visible Light 15h 10m
Length of Day
14h 13m
Waning Gibbous, 86% of the Moon is Illuminated
Jun 7
Waning Gibbous
Jun 11
Last Quarter
Jun 19
New
Jun 26
First Quarter
Jul 3
Full

Hourly Weather History & Observations

Time (CDT) Temp. Heat Index Dew Point Humidity Pressure Visibility Wind Dir Wind Speed Gust Speed Precip Events Conditions
12:53 AM 71.1 °F - 57.9 °F 63% 29.93 in 10.0 mi NNE 4.6 mph - N/A   Clear
1:53 AM 69.8 °F - 57.2 °F 64% 29.93 in 10.0 mi NNE 4.6 mph - N/A   Clear
2:53 AM 70.0 °F - 57.9 °F 65% 29.92 in 10.0 mi NNE 4.6 mph - N/A   Clear
3:53 AM 70.0 °F - 59.0 °F 68% 29.92 in 10.0 mi NE 4.6 mph - N/A   Scattered Clouds
4:53 AM 71.1 °F - 60.1 °F 68% 29.93 in 10.0 mi ENE 6.9 mph - N/A   Overcast
5:53 AM 70.0 °F - 57.9 °F 65% 29.94 in 10.0 mi ENE 10.4 mph - N/A   Clear
6:53 AM 70.0 °F - 59.0 °F 68% 29.96 in 10.0 mi ENE 6.9 mph - N/A   Clear
7:53 AM 73.0 °F - 57.9 °F 59% 29.96 in 10.0 mi East 8.1 mph - N/A   Partly Cloudy
8:53 AM 77.0 °F - 59.0 °F 54% 29.97 in 10.0 mi ENE 9.2 mph - N/A   Clear
9:53 AM 80.1 °F 80.4 °F 57.0 °F 45% 29.98 in 10.0 mi ENE 9.2 mph - N/A   Clear
10:53 AM 81.0 °F 81.0 °F 57.0 °F 44% 29.98 in 10.0 mi ENE 6.9 mph 16.1 mph N/A   Partly Cloudy
11:53 AM 84.9 °F 83.7 °F 55.9 °F 37% 29.98 in 10.0 mi ENE 9.2 mph 18.4 mph N/A   Clear
12:53 PM 84.9 °F 83.9 °F 57.0 °F 38% 29.97 in 10.0 mi NNE 8.1 mph - N/A   Partly Cloudy
1:53 PM 86.0 °F 84.9 °F 57.0 °F 37% 29.95 in 10.0 mi NNE 12.7 mph - N/A   Scattered Clouds
2:53 PM 87.1 °F 85.9 °F 57.0 °F 36% 29.94 in 10.0 mi NNE 10.4 mph - N/A   Partly Cloudy
3:53 PM 87.1 °F 85.7 °F 55.9 °F 35% 29.92 in 10.0 mi NE 9.2 mph - N/A   Clear
4:53 PM 88.0 °F 86.5 °F 55.9 °F 34% 29.91 in 10.0 mi NE 9.2 mph - N/A   Clear
5:53 PM 87.1 °F 85.9 °F 57.0 °F 36% 29.91 in 10.0 mi NE 12.7 mph - N/A   Clear
6:53 PM 84.0 °F 83.5 °F 57.9 °F 41% 29.93 in 10.0 mi NE 9.2 mph - N/A   Clear
7:53 PM 81.0 °F 81.1 °F 57.9 °F 45% 29.94 in 10.0 mi NNE 6.9 mph - N/A   Clear
8:53 PM 79.0 °F - 57.0 °F 47% 29.94 in 10.0 mi NNE 8.1 mph - N/A   Clear
9:53 PM 75.9 °F - 57.9 °F 54% 29.95 in 10.0 mi NNE 5.8 mph - N/A   Clear
10:53 PM 75.9 °F - 57.9 °F 54% 29.95 in 10.0 mi NNE 5.8 mph - N/A   Clear
11:53 PM 73.9 °F - 57.9 °F 57% 29.95 in 10.0 mi NNE 4.6 mph - N/A   Clear